Regional Weather Roundup
Issued by NWS

Home | Current Version | Previous Version | Text Only | Print | Product List | Glossary On
Versions: 1 2 3 4 5 6 7 8 9 10 11 12 13 14 15 16 17 18 19 20 21 22 23 24 25 26 27 28 29 30 31 32 33 34 35 36 37 38 39 40 41 42 43 44 45 46 47 48 49 50
000
ASUS46 KSEW 282310
RWRWA

WASHINGTON REGIONAL WEATHER ROUNDUP
NATIONAL WEATHER SERVICE SEATTLE WA
400 PM PDT SUN AUG 28 2016

NOTE:"FAIR" INDICATES FEW OR NO CLOUDS BELOW 12,000 FEET WITH NO
SIGNIFICANT WEATHER AND/OR OBSTRUCTIONS TO VISIBILITY.

WAZ505-507>509-290000-
SEATTLE, TACOMA, EVERETT, AND VICINITY

CITY           SKY/WX    TMP DP  RH WIND       PRES   REMARKS
EVERETT        CLOUDY    63  51  65 N3        30.11F
BOEING FIELD   CLOUDY    67  52  58 NW12      30.09S
RENTON         LGT RAIN  69  54  58 NW10      30.07F
SEATAC AIRPORT CLOUDY    68  50  52 CALM      30.09F
JBLM-MCCHORD   CLOUDY    71  52  50 N9        30.07S
PUYALLUP       FAIR      73  52  46 VRB5G12   30.07S
BREMERTON      CLOUDY    64  54  68 NE10      30.12F
JBLM-FT LEWIS  CLOUDY    71  53  52 NW9       30.06F
TACOMA NARROWS CLOUDY    69  49  48 NE3       30.09S
$$

WAZ001-503-506-510-514-515-290000-
NORTH INTERIOR

CITY           SKY/WX    TMP DP  RH WIND       PRES   REMARKS
BELLINGHAM     CLOUDY    61  58  90 SW3       30.11S
FRIDAY HARBOR  RAIN      59  55  87 CALM      30.11F FOG
EASTSOUND      LGT RAIN  59  55  88 CALM      30.08F
PORT ANGELES   LGT RAIN  60  55  83 N3        30.10F
EDIZ HOOK      LGT RAIN  56  54  92 E5        30.10S
PORT TOWNSEND  FAIR      61  55  82 CALM      30.10F
NAS WHIDBEY    LGT RAIN  59  53  80 CALM      30.14F
ARLINGTON      CLOUDY    64  48  55 NW9       30.12S
BURLINGTON     SUNNY     61  55  82 CALM      30.11F
$$

WAZ020-022-039-040-504-511-512-290000-
SOUTHWEST INTERIOR

CITY           SKY/WX    TMP DP  RH WIND       PRES   REMARKS
SHELTON        CLOUDY    71  50  47 S5        30.05F
OLYMPIA        CLOUDY    73  50  44 NE9       30.06F
CHEHALIS       FAIR      81  54  39 VRB5      30.03F
KELSO          SUNNY     81  52  36 N8        30.02F
VANCOUVER      MOSUNNY   81  47  30 W6        30.00F
SCAPPOOSE, OR  SUNNY     82  53  36 E5        30.00F
PORTLAND, OR   MOSUNNY   82  44  26 W8        30.00F
$$

WAZ021-516-517-290000-
WASHINGTON COAST

CITY           SKY/WX    TMP DP  RH WIND       PRES   REMARKS
FORKS          LGT RAIN  60  55  83 CALM      30.08F
HOQUIAM        PTSUNNY   64  55  72 W9        30.08F
ASTORIA, OR    SUNNY     70  51  51 W8        30.06F
$$

WAZ019-023-024-040-518-519-290000-
CASCADE MOUNTAINS AND COLUMBIA GORGE

CITY           SKY/WX    TMP DP  RH WIND       PRES   REMARKS
STAMPEDE PASS  PTSUNNY   67  41  38 VRB3      30.16S
TROUTDALE, OR  SUNNY     82  51  34 VRB6      30.00F
THE DALLES, OR SUNNY     92  47  21 NW10      29.92F
$$

WAZ026-027-041>044-520-521-290000-
EAST SLOPES

CITY           SKY/WX    TMP DP  RH WIND       PRES   REMARKS
OMAK           CLOUDY    83  37  19 S10       30.00S
WENATCHEE      PTSUNNY   83  40  21 W8        29.99F
ELLENSBURG     MOSUNNY   86  35  16 VRB3      30.02F
YAKIMA         SUNNY     88  35  15 CALM      29.98F
$$

WAZ028-034-035-290000-
COLUMBIA BASIN

CITY           SKY/WX    TMP DP  RH WIND       PRES   REMARKS
EPHRATA        PTSUNNY   84  36  18 S6        29.99F
MOSES LAKE     MOSUNNY   84  38  19 SW7       30.01F
PASCO          SUNNY     88  41  19 CALM      29.96F
HERMISTON, OR  MOSUNNY   89  34  14 N7        29.95F
$$

WAZ036>038-290000-
NORTHEAST WASHINGTON

CITY           SKY/WX    TMP DP  RH WIND       PRES   REMARKS
SPOKANE GEIGER PTSUNNY   79  34  19 W7        30.07S
SPOKANE FELTS  MOSUNNY   82  38  20 S8        30.06S
FAIRCHILD AFB  MOSUNNY   80  34  19 VRB5      30.07S
COEURDALENE,ID PTSUNNY   79  39  24 NW6       30.05S
DEER PARK      MOSUNNY   80  33  18 S7G21     30.06F
$$

WAZ029>033-290000-
SOUTHEAST WASHINGTON

CITY           SKY/WX    TMP DP  RH WIND       PRES   REMARKS
PULLMAN        SUNNY     80  37  21 VRB3      30.09F
LEWISTON, ID   SUNNY     88  40  18 MISG      30.01S
WALLA WALLA    SUNNY     87  39  18 VRB5      29.99F
PENDLETON, OR  MOSUNNY   87  42  20 NW6       29.99F
$$



USA.gov is the U.S. government's official web portal to all federal, state and local government web resources and services.